Weather History for Oxford, CT

Change the Weather History Date:

Monday, November 5, 2012

  Actual Average Record
Temperature  
Mean Temperature 32 °F -  
Max Temperature 39 °F 50 °F 73 °F (2005)
Min Temperature 26 °F 34 °F 24 °F (1998)
Degree Days  
Heating Degree Days 32    
Moisture  
Dew Point 22 °F    
Average Humidity 61    
Maximum Humidity 70    
Minimum Humidity 48    
Precipitation  
Precipitation 0.00 in - - ()
Sea Level Pressure  
Sea Level Pressure 30.03 in    
Wind  
Wind Speed 10 mph (NNW)    
Max Wind Speed 17 mph    
Max Gust Speed 29 mph    
Visibility 10 miles    
Events      
Averages and records for this station are not official NWS values.
T = Trace of Precipitation, MM = Missing Value Source: NWS Daily Summary

Daily Weather History Graph

Daily Weather History Graph

Search for Another Location

Airport:

Trip Planner

Search our weather history database for the weather conditions in past years. The results will help you decide how hot, cold, wet, or windy it might be!

Date:

Astronomy

Nov. 05, 2012 Rise Set
Actual Time 6:29 AM EST 4:42 PM EST
Civil Twilight 6:00 AM EST 5:11 PM EST
Nautical Twilight 5:27 AM EST 5:44 PM EST
Astronomical Twilight 4:55 AM EST 6:16 PM EST
Moon 10:17 PM EST (11/5) 11:47 AM EST (11/5)
Length of Visible Light 11h 10m
Length of Day
10h 12m
Waning Gibbous, 63% of the Moon is Illuminated
Nov 5
Waning Gibbous
Nov 6
Last Quarter
Nov 13
New
Nov 20
First Quarter
Nov 28
Full

Hourly Weather History & Observations

Time (EST) Temp. Windchill Dew Point Humidity Pressure Visibility Wind Dir Wind Speed Gust Speed Precip Events Conditions
12:15 AM 37.4 °F 31.4 °F 26.6 °F 65% 29.98 in 10.0 mi NNW 8.1 mph - N/A   Overcast
12:35 AM 37.4 °F 30.3 °F 26.6 °F 65% 29.98 in 10.0 mi NNW 10.4 mph - N/A   Overcast
12:55 AM 37.4 °F 32.1 °F 26.6 °F 65% 29.99 in 10.0 mi NNW 6.9 mph - N/A   Overcast
1:15 AM 35.6 °F 28.6 °F 26.6 °F 70% 29.99 in 10.0 mi NNW 9.2 mph - N/A   Overcast
1:35 AM 35.6 °F 28.6 °F 24.8 °F 65% 29.99 in 10.0 mi NW 9.2 mph - N/A   Overcast
1:55 AM 35.6 °F 28.6 °F 24.8 °F 65% 29.98 in 10.0 mi NW 9.2 mph 16.1 mph N/A   Overcast
2:15 AM 35.6 °F 28.6 °F 24.8 °F 65% 29.98 in 10.0 mi NW 9.2 mph - N/A   Overcast
2:35 AM 35.6 °F 29.2 °F 24.8 °F 65% 29.99 in 10.0 mi NW 8.1 mph - N/A   Overcast
2:55 AM 35.6 °F 29.2 °F 24.8 °F 65% 29.98 in 10.0 mi NNW 8.1 mph - N/A   Overcast
3:15 AM 35.6 °F 28.6 °F 24.8 °F 65% 29.97 in 10.0 mi NNW 9.2 mph - N/A   Overcast
3:35 AM 35.6 °F 28.0 °F 23.0 °F 60% 29.97 in 10.0 mi North 10.4 mph - N/A   Overcast
3:55 AM 35.6 °F 28.6 °F 23.0 °F 60% 29.97 in 10.0 mi North 9.2 mph - N/A   Overcast
4:15 AM 33.8 °F 25.3 °F 23.0 °F 65% 29.98 in 10.0 mi North 11.5 mph - N/A   Overcast
4:35 AM 33.8 °F 26.4 °F 23.0 °F 65% 29.98 in 10.0 mi North 9.2 mph - N/A   Overcast
4:55 AM 33.8 °F 25.3 °F 23.0 °F 65% 29.98 in 10.0 mi NNW 11.5 mph 16.1 mph N/A   Overcast
5:15 AM 33.8 °F 25.3 °F 23.0 °F 65% 29.99 in 10.0 mi North 11.5 mph - N/A   Overcast
5:35 AM 33.8 °F 26.4 °F 23.0 °F 65% 29.99 in 10.0 mi North 9.2 mph - N/A   Overcast
5:45 AM 33.8 °F 26.4 °F 23.0 °F 65% 29.99 in 10.0 mi North 9.2 mph 17.3 mph N/A   Overcast
7:45 AM 33.8 °F 25.3 °F 21.2 °F 60% 30.03 in 10.0 mi NNW 11.5 mph - N/A   Overcast
8:45 AM 35.6 °F 27.5 °F 23.0 °F 60% 30.03 in 10.0 mi NNW 11.5 mph - N/A   Overcast
9:45 AM 37.4 °F 29.8 °F 24.8 °F 60% 30.03 in 10.0 mi North 11.5 mph - N/A   Overcast
10:45 AM 37.4 °F 28.9 °F 23.0 °F 56% 30.02 in 10.0 mi North 13.8 mph 20.7 mph N/A   Scattered Clouds
11:45 AM 39.2 °F 30.5 °F 24.8 °F 56% 30.01 in 10.0 mi NNE 16.1 mph 20.7 mph N/A   Scattered Clouds
12:45 PM 39.2 °F 31.2 °F 23.0 °F 52% 30.01 in 10.0 mi North 13.8 mph 20.7 mph N/A   Mostly Cloudy
1:45 PM 39.2 °F 30.5 °F 21.2 °F 49% 30.00 in 10.0 mi North 16.1 mph 23.0 mph N/A   Scattered Clouds
2:45 PM 37.4 °F 29.3 °F 21.2 °F 52% 30.01 in 10.0 mi NNW 12.7 mph 19.6 mph N/A   Partly Cloudy
3:45 PM 37.4 °F 27.8 °F 19.4 °F 48% 30.03 in 10.0 mi North 17.3 mph 28.8 mph N/A   Partly Cloudy
5:45 PM 33.8 °F 25.3 °F 19.4 °F 56% 30.07 in 10.0 mi NNE 11.5 mph - N/A   Clear
6:45 PM 30.2 °F 24.3 °F 17.6 °F 60% 30.10 in 10.0 mi North 5.8 mph - N/A   Clear
7:45 PM 26.6 °F 19.1 °F 17.6 °F 69% 30.12 in 10.0 mi NNE 6.9 mph - N/A   Clear
9:15 PM 30.2 °F 23.4 °F 17.6 °F 60% 30.15 in 10.0 mi North 6.9 mph - N/A   Clear
9:35 PM 30.2 °F 23.4 °F 17.6 °F 60% 30.15 in 10.0 mi North 6.9 mph - N/A   Clear
9:55 PM 30.2 °F 22.6 °F 17.6 °F 60% 30.15 in 10.0 mi NNW 8.1 mph - N/A   Clear
10:35 PM 30.2 °F 23.4 °F 15.8 °F 55% 30.16 in 10.0 mi NNW 6.9 mph - N/A   Clear
10:55 PM 28.4 °F 22.2 °F 17.6 °F 64% 30.16 in 10.0 mi NNW 5.8 mph - N/A   Clear
11:35 PM 28.4 °F 22.2 °F 15.8 °F 59% 30.17 in 10.0 mi NNW 5.8 mph - N/A   Clear
11:55 PM 26.6 °F 20.0 °F 15.8 °F 64% 30.17 in 10.0 mi North 5.8 mph - N/A   Clear